Location: McFarlands Corners
(41.4117°N, 81.3382°W)
Time: 12:10:31
(UTC+00:00)

S-56A Canister/Altair - All Passes

Search period start: 16 February 2026 00:00
Search period end: 26 February 2026 00:00
Orbit: 632 x 2485 km, 38.9° (Epoch: 16 February)

Date Brightness Start Highest point End Pass type
(mag) Time Alt. Az. Time Alt. Az. Time Alt. Az.
16 Feb - 03:40:09 10° S 03:43:46 18° SE 03:48:10 10° E night (unlit)
16 Feb - 05:40:26 10° SW 05:46:22 57° SSE 05:55:19 10° E visible
16 Feb - 07:43:06 10° W 07:50:36 77° S 08:02:11 10° E visible
16 Feb - 09:46:29 10° W 09:55:36 59° SSW 10:08:43 10° SE visible
16 Feb - 11:51:12 10° W 12:00:37 31° SW 12:12:17 10° SSE visible
17 Feb - 03:06:44 10° SSE 03:09:10 13° SE 03:11:55 10° ESE night (unlit)
17 Feb - 05:06:02 10° SW 05:11:30 50° SSE 05:19:33 10° E night (unlit)
17 Feb - 07:08:29 10° W 07:15:25 76° S 07:26:13 10° E visible
17 Feb - 09:11:42 10° W 09:20:14 62° SSW 09:32:51 10° ESE visible
17 Feb - 11:16:00 10° W 11:25:11 34° SSW 11:37:01 10° SSE visible
17 Feb - 13:27:56 10° SW 13:29:38 10° SW 13:31:23 10° SW daylight
18 Feb - 04:31:40 10° SW 04:36:43 43° SSE 04:43:52 10° E night (unlit)
18 Feb - 06:33:54 10° W 06:40:20 75° S 06:50:18 10° E visible
18 Feb - 08:36:58 10° W 08:44:56 64° SSW 08:56:57 10° ESE visible
18 Feb - 10:40:56 10° W 10:49:47 36° SSW 11:01:37 10° SSE visible
18 Feb - 12:49:46 10° WSW 12:54:20 13° SW 12:59:16 10° SSW daylight
19 Feb - 03:57:22 10° SW 04:02:00 36° SSE 04:08:15 10° E night (unlit)
19 Feb - 05:59:21 10° WSW 06:05:20 72° S 06:14:28 10° E visible
19 Feb - 08:02:17 10° W 08:09:42 67° SSW 08:21:03 10° ESE visible
19 Feb - 10:05:58 10° W 10:14:26 39° SSW 10:26:07 10° SSE visible
19 Feb - 12:13:17 10° WSW 12:19:01 15° SW 12:25:28 10° SSW daylight
20 Feb - 03:23:08 10° SSW 03:27:20 29° SSE 03:32:42 10° E night (unlit)
20 Feb - 05:24:51 10° WSW 05:30:24 69° S 05:38:43 10° E night (unlit)
20 Feb - 07:27:40 10° W 07:34:33 69° S 07:45:10 10° ESE visible
20 Feb - 09:31:07 10° W 09:39:07 42° SSW 09:50:32 10° SE visible
20 Feb - 11:37:23 10° WSW 11:43:43 17° SW 11:51:07 10° S visible
21 Feb - 02:48:59 10° SSW 02:52:42 23° SE 02:57:10 10° E night (unlit)
21 Feb - 04:50:21 10° WSW 04:55:33 64° SSE 05:03:05 10° E night (unlit)
21 Feb - 06:53:05 10° W 06:59:28 70° S 07:09:19 10° ESE visible
21 Feb - 08:56:20 10° W 09:03:53 44° SSW 09:14:54 10° SE visible
21 Feb - 11:01:50 10° WSW 11:08:25 19° SW 11:16:26 10° S visible
22 Feb - 02:14:57 10° S 02:18:05 18° SE 02:21:38 10° E night (unlit)
22 Feb - 04:15:53 10° WSW 04:20:45 58° SSE 04:27:33 10° E night (unlit)
22 Feb - 06:18:31 10° W 06:24:28 72° S 06:33:32 10° ESE visible
22 Feb - 08:21:36 10° W 08:28:42 47° SSW 08:39:13 10° SE visible
22 Feb - 10:26:30 10° W 10:33:10 21° SW 10:41:31 10° S visible
23 Feb - 01:41:08 10° S 01:43:29 14° SE 01:45:59 10° ESE visible
23 Feb - 03:41:25 10° WSW 03:46:00 51° SSE 03:52:07 10° E night (unlit)
23 Feb - 05:43:58 10° W 05:49:31 72° S 05:57:50 10° E night (unlit)
23 Feb - 07:46:57 10° W 07:53:36 50° SSW 08:03:32 10° SE visible
23 Feb - 09:51:22 10° W 09:57:57 23° SSW 10:06:27 10° SSE visible
24 Feb - 01:07:59 10° SSE 01:08:51 10° SE 01:09:44 10° SE visible
24 Feb - 03:06:58 10° SW 03:11:19 44° SSE 03:16:47 10° E night (unlit)
24 Feb - 05:09:26 10° W 05:14:38 72° S 05:22:13 10° E night (unlit)
24 Feb - 07:12:20 10° W 07:18:33 52° SSW 07:27:52 10° SE visible
24 Feb - 09:16:22 10° W 09:22:46 25° SSW 09:31:16 10° SSE visible
25 Feb - 02:32:31 10° SW 02:36:39 37° SSE 02:41:32 10° E visible
25 Feb - 04:34:54 10° W 04:39:48 70° S 04:46:42 10° E night (unlit)
25 Feb - 06:37:44 10° W 06:43:34 55° SSW 06:52:15 10° ESE visible
25 Feb - 08:41:28 10° W 08:47:38 27° SSW 08:56:01 10° SSE visible
